TimeCDT,TemperatureF,Dew PointF,Humidity,Sea Level PressureIn,VisibilityMPH,Wind Direction,Wind SpeedMPH,Gust SpeedMPH,PrecipitationIn,Events,Conditions,WindDirDegrees,DateUTC
12:53 AM,77.0,71.1,82,29.70,10.0,South,9.2,-,N/A,,Mostly Cloudy,180,2013-06-26 05:53:00
1:53 AM,75.9,70.0,82,29.68,10.0,South,6.9,-,N/A,,Mostly Cloudy,170,2013-06-26 06:53:00
2:53 AM,75.9,69.1,79,29.67,10.0,SSW,10.4,-,N/A,,Partly Cloudy,200,2013-06-26 07:53:00
3:53 AM,75.0,69.1,82,29.68,10.0,SSW,10.4,-,N/A,,Clear,210,2013-06-26 08:53:00
4:53 AM,73.0,69.1,87,29.69,10.0,SSW,6.9,-,N/A,,Clear,200,2013-06-26 09:53:00
5:36 AM,71.6,66.2,83,29.74,10.0,East,6.9,-,N/A,,Mostly Cloudy,80,2013-06-26 10:36:00
5:43 AM,71.6,64.4,78,29.74,10.0,East,9.2,-,N/A,,Overcast,90,2013-06-26 10:43:00
5:53 AM,71.1,64.9,81,29.72,10.0,East,12.7,-,N/A,,Overcast,90,2013-06-26 10:53:00
6:53 AM,69.1,66.0,90,29.75,10.0,East,10.4,-,0.00,Rain,Light Rain,100,2013-06-26 11:53:00
7:10 AM,68.0,66.2,94,29.77,10.0,ESE,9.2,-,0.00,Thunderstorm,Overcast,110,2013-06-26 12:10:00
7:25 AM,68.0,66.2,94,29.76,6.0,SE,10.4,-,0.01,Rain,Rain,130,2013-06-26 12:25:00
7:53 AM,69.1,66.0,90,29.75,10.0,SE,9.2,-,0.02,,Overcast,130,2013-06-26 12:53:00
8:53 AM,71.1,68.0,90,29.74,10.0,SSE,5.8,-,N/A,,Overcast,160,2013-06-26 13:53:00
9:41 AM,75.2,68.0,78,29.75,10.0,South,8.1,-,N/A,,Scattered Clouds,170,2013-06-26 14:41:00
9:53 AM,75.9,69.1,79,29.73,10.0,South,9.2,-,N/A,,Scattered Clouds,180,2013-06-26 14:53:00
10:53 AM,78.1,69.1,74,29.74,10.0,SSE,4.6,-,N/A,,Partly Cloudy,150,2013-06-26 15:53:00
11:15 AM,78.8,69.8,74,29.76,10.0,South,5.8,-,N/A,,Mostly Cloudy,190,2013-06-26 16:15:00
11:53 AM,80.1,70.0,71,29.75,10.0,SE,4.6,-,N/A,,Overcast,140,2013-06-26 16:53:00
12:53 PM,81.0,72.0,74,29.74,10.0,South,8.1,-,N/A,,Mostly Cloudy,170,2013-06-26 17:53:00
1:53 PM,84.0,73.0,69,29.74,10.0,Variable,6.9,-,N/A,,Overcast,0,2013-06-26 18:53:00
2:00 PM,84.2,73.4,70,29.76,10.0,SSW,6.9,-,N/A,,Mostly Cloudy,210,2013-06-26 19:00:00
2:13 PM,84.2,73.4,70,29.76,10.0,SW,6.9,-,N/A,,Scattered Clouds,220,2013-06-26 19:13:00
2:53 PM,86.0,75.0,70,29.73,10.0,West,5.8,-,N/A,,Scattered Clouds,260,2013-06-26 19:53:00
3:53 PM,86.0,73.9,67,29.74,10.0,WNW,9.2,-,N/A,,Clear,300,2013-06-26 20:53:00
4:03 PM,84.2,75.2,74,29.76,10.0,NW,6.9,-,N/A,Thunderstorm,Clear,310,2013-06-26 21:03:00
4:13 PM,84.2,73.4,70,29.77,10.0,SW,16.1,27.6,N/A,Thunderstorm,Partly Cloudy,220,2013-06-26 21:13:00
4:44 PM,78.8,71.6,78,29.77,10.0,WNW,5.8,-,0.00,Rain,Light Rain,300,2013-06-26 21:44:00
4:53 PM,82.0,72.0,71,29.74,10.0,NW,5.8,-,0.00,,Mostly Cloudy,310,2013-06-26 21:53:00
5:53 PM,87.1,75.0,67,29.74,10.0,NW,5.8,-,N/A,,Clear,310,2013-06-26 22:53:00
6:53 PM,84.9,75.9,74,29.75,10.0,WNW,3.5,-,N/A,,Partly Cloudy,290,2013-06-26 23:53:00
7:53 PM,82.9,71.1,67,29.75,10.0,NW,9.2,-,N/A,,Clear,310,2013-06-27 00:53:00
8:53 PM,78.1,68.0,71,29.76,10.0,WNW,6.9,-,N/A,,Clear,300,2013-06-27 01:53:00
9:53 PM,73.9,66.9,79,29.78,10.0,WNW,5.8,-,N/A,,Clear,290,2013-06-27 02:53:00
10:53 PM,73.0,66.0,79,29.81,10.0,WNW,6.9,-,N/A,,Clear,300,2013-06-27 03:53:00
11:53 PM,70.0,66.0,87,29.82,10.0,West,6.9,-,N/A,,Clear,280,2013-06-27 04:53:00